Date String (YYYY-MM-DD hh:mm:ss) UTC,Instrument flags,Ambient pressure (hPa),Sample flow (lpm),Bypass flow (lpm),Sample temperature (°C),Ambient temperature (°C),ASC tube jacket temperature (°C),LED temperature (°C),Box temperature (°C),Sample RH (%),Span deviation,Mass concentration (μg/m³),Mass concentration (μg/m³),Mass concentration (μg/m³)
DateTimeUTC,F1_M11,P_M11,Q1_M11,Q2_M11,T1_M11,T2_M11,T3_M11,T4_M11,T5_M11,U1_M11,ZSPAN_M11,X0_M11,X2_M11,X1_M11
2023-05-28 21:00:00,,0828.3,4.99,0.00,29.2,26.6,00.0,37.5,30.8,22.5,0000.0,0019.15,0005.97,0003.83
2023-05-28 21:01:00,,0828.3,5.00,0.00,29.2,26.9,00.0,37.5,30.8,19.8,0000.0,0018.80,0005.99,0003.83
2023-05-28 21:02:00,,0828.2,4.99,0.00,29.2,27.2,00.0,37.5,30.9,20.7,0000.0,0018.50,0005.96,0003.81
2023-05-28 21:03:00,,0828.2,5.00,0.00,29.2,27.4,00.0,37.5,30.9,20.4,0000.0,0018.01,0005.90,0003.78
2023-05-28 21:04:00,,0828.2,5.00,0.00,29.2,27.5,00.0,37.6,31.0,19.1,0002.4,0017.84,0005.87,0003.74
2023-05-28 21:05:00,,0828.2,5.00,0.00,29.3,27.7,00.0,37.6,31.0,20.7,0002.5,0017.45,0005.76,0003.68
2023-05-28 21:06:00,,0828.2,5.00,0.00,29.3,27.8,00.0,37.6,31.1,20.3,0000.9,0016.58,0005.49,0003.59
2023-05-28 21:07:00,,0828.1,5.00,0.00,29.3,27.9,00.0,37.6,31.1,21.3,0000.0,0016.39,0005.25,0003.49
2023-05-28 21:08:00,,0828.1,5.00,0.00,29.4,28.0,00.0,37.6,31.1,24.0,0000.0,0015.00,0005.06,0003.41
2023-05-28 21:09:00,,0828.0,5.00,0.00,29.4,28.1,00.0,37.6,31.2,23.5,0000.0,0013.56,0004.89,0003.35
2023-05-28 21:10:00,,0828.1,4.99,0.00,29.4,28.2,00.0,37.7,31.2,23.6,0000.0,0012.57,0004.68,0003.31
2023-05-28 21:11:00,,0828.1,4.99,0.00,29.5,28.1,00.0,37.7,31.2,25.6,0000.0,0011.99,0004.53,0003.28
2023-05-28 21:12:00,,0828.1,4.99,0.00,29.5,26.5,00.0,37.6,31.0,23.9,0000.0,0011.97,0004.47,0003.26
2023-05-28 21:13:00,,0828.0,5.01,0.00,29.4,25.5,00.0,37.5,30.9,23.6,0000.0,0012.05,0004.48,0003.26
2023-05-28 21:14:00,,0828.0,5.01,0.00,29.3,25.5,00.0,37.5,30.8,24.2,0000.0,0011.95,0004.47,0003.25
2023-05-28 21:15:00,,0828.0,5.00,0.00,29.3,25.8,00.0,37.5,30.7,23.5,0000.0,0011.91,0004.44,0003.24
2023-05-28 21:16:00,,0828.1,5.00,0.00,29.2,26.1,00.0,37.5,30.7,21.9,0000.0,0011.91,0004.43,0003.24
2023-05-28 21:17:00,,0828.1,5.00,0.00,29.2,26.5,00.0,37.5,30.8,19.9,0000.0,0011.24,0004.40,0003.23
2023-05-28 21:18:00,,0828.1,5.00,0.00,29.2,26.8,00.0,37.5,30.9,19.3,0000.0,0010.21,0004.32,0003.22
2023-05-28 21:19:00,,0828.1,5.00,0.00,29.2,27.1,00.0,37.5,30.9,19.7,0000.0,0009.57,0004.24,0003.21
2023-05-28 21:20:00,,0828.0,5.01,0.00,29.3,27.3,00.0,37.6,30.9,20.0,0000.0,0009.51,0004.17,0003.21
2023-05-28 21:21:00,,0828.0,5.00,0.00,29.3,27.5,00.0,37.6,31.0,20.7,0000.0,0010.37,0004.12,0003.19
2023-05-28 21:22:00,,0828.1,4.99,0.00,29.3,27.7,00.0,37.6,31.0,21.6,0000.0,0009.75,0004.04,0003.18
2023-05-28 21:23:00,,0828.1,5.00,0.00,29.3,27.8,00.0,37.6,31.1,20.2,0000.0,0009.25,0004.01,0003.17
2023-05-28 21:24:00,,0828.1,5.00,0.00,29.4,28.0,00.0,37.6,31.1,21.6,0000.0,0009.32,0004.00,0003.16
2023-05-28 21:25:00,,0828.1,5.00,0.00,29.4,28.1,00.0,37.6,31.2,20.6,0000.0,0009.34,0004.01,0003.17
2023-05-28 21:26:00,,0828.1,5.00,0.00,29.4,28.2,00.0,37.7,31.2,21.3,0000.0,0009.41,0003.99,0003.16
2023-05-28 21:27:00,,0828.1,5.00,0.00,29.5,28.3,00.0,37.7,31.2,20.8,0000.0,0009.62,0003.93,0003.15
2023-05-28 21:28:00,,0828.1,5.01,0.00,29.5,28.2,00.0,37.7,31.3,21.3,0000.0,0010.47,0003.95,0003.16
2023-05-28 21:29:00,,0828.0,4.99,0.00,29.5,26.8,00.0,37.6,31.1,22.0,0000.0,0011.20,0004.01,0003.17
2023-05-28 21:30:00,,0827.9,5.00,0.00,29.4,25.7,00.0,37.6,30.9,21.7,0000.0,0012.12,0004.06,0003.17
2023-05-28 21:31:00,,0827.8,5.01,0.00,29.4,25.7,00.0,37.5,30.8,23.2,0000.0,0012.74,0004.08,0003.16
2023-05-28 21:32:00,,0827.8,5.01,0.00,29.3,25.9,00.0,37.6,30.8,23.2,0000.0,0011.79,0004.09,0003.16
2023-05-28 21:33:00,,0827.7,5.00,0.00,29.3,26.3,00.0,37.6,30.8,24.8,0000.0,0011.77,0004.12,0003.16
2023-05-28 21:34:00,,0827.7,4.99,0.00,29.3,26.6,00.0,37.6,30.9,25.3,0000.0,0011.84,0004.14,0003.16
2023-05-28 21:35:00,,0827.7,4.99,0.00,29.3,26.9,00.0,37.6,30.9,26.9,0000.0,0011.65,0004.10,0003.15
2023-05-28 21:36:00,,0827.5,5.00,0.00,29.3,27.2,00.0,37.6,31.0,25.0,0000.0,0011.80,0004.04,0003.14
2023-05-28 21:37:00,,0827.5,5.01,0.00,29.3,27.4,00.0,37.6,31.0,23.5,0000.0,0011.53,0003.98,0003.13
2023-05-28 21:38:00,,0827.4,5.00,0.00,29.3,27.6,00.0,37.6,31.0,22.9,0000.0,0011.51,0004.00,0003.12
2023-05-28 21:39:00,,0827.6,4.99,0.00,29.4,27.8,00.0,37.6,31.1,23.1,0000.0,0010.51,0004.01,0003.11
2023-05-28 21:40:00,,0827.6,5.01,0.00,29.4,27.9,00.0,37.6,31.1,22.6,0000.0,0010.01,0003.98,0003.08
2023-05-28 21:41:00,,0827.7,5.02,0.00,29.4,28.0,00.0,37.7,31.2,21.5,0000.0,0009.40,0003.95,0003.04
2023-05-28 21:42:00,,0827.8,4.99,0.00,29.4,28.1,00.0,37.7,31.2,21.4,0000.0,0008.47,0003.93,0003.04
2023-05-28 21:43:00,,0827.9,4.99,0.00,29.5,28.2,00.0,37.7,31.2,20.1,0000.0,0008.44,0003.92,0003.00
2023-05-28 21:44:00,,0827.8,5.01,0.00,29.5,28.3,00.0,37.7,31.3,20.4,0000.0,0008.52,0003.92,0002.98
2023-05-28 21:45:00,,0827.4,5.01,0.00,29.6,28.3,00.0,37.8,31.3,19.4,0000.0,0008.48,0003.87,0002.95
2023-05-28 21:46:00,,0827.5,4.98,0.00,29.6,27.0,00.0,37.7,31.1,19.6,0000.0,0008.43,0003.85,0002.94
2023-05-28 21:47:00,,0827.5,5.01,0.00,29.5,25.9,00.0,37.6,31.0,18.6,0000.0,0008.15,0003.85,0002.91
2023-05-28 21:48:00,,0827.5,5.01,0.00,29.4,25.8,00.0,37.6,30.8,19.0,0000.0,0008.64,0003.86,0002.90
2023-05-28 21:49:00,,0827.5,5.01,0.00,29.3,26.0,00.0,37.6,30.8,20.3,0000.0,0008.65,0003.85,0002.90
2023-05-28 21:50:00,,0827.5,4.99,0.00,29.3,26.3,00.0,37.6,30.8,18.9,0000.0,0008.82,0003.86,0002.92
2023-05-28 21:51:00,,0827.5,5.00,0.00,29.3,26.7,00.0,37.6,30.9,18.7,0000.0,0009.25,0003.84,0002.92
2023-05-28 21:52:00,,0827.5,5.00,0.00,29.3,27.0,00.0,37.6,31.0,17.5,0000.0,0009.12,0003.82,0002.91
2023-05-28 21:53:00,,0827.5,5.00,0.00,29.3,27.2,00.0,37.7,31.0,19.0,0000.0,0009.12,0003.79,0002.88
2023-05-28 21:54:00,,0827.6,4.99,0.00,29.4,27.5,00.0,37.7,31.1,19.4,0000.0,0009.02,0003.75,0002.87
2023-05-28 21:55:00,,0827.5,5.00,0.00,29.4,27.7,00.0,37.7,31.1,20.1,0000.0,0009.02,0003.76,0002.88
2023-05-28 21:56:00,,0827.5,5.00,0.00,29.4,27.8,00.0,37.7,31.1,20.7,0000.0,0009.35,0003.81,0002.90
2023-05-28 21:57:00,,0827.5,4.99,0.00,29.4,27.9,00.0,37.7,31.1,21.8,0000.0,0010.08,0003.81,0002.91
2023-05-28 21:58:00,,0827.4,5.00,0.00,29.5,28.0,00.0,37.7,31.2,24.4,0000.0,0009.90,0003.81,0002.95
2023-05-28 21:59:00,,0827.5,5.00,0.00,29.5,28.1,00.0,37.7,31.2,24.4,0000.0,0009.51,0003.84,0002.98
